Wind_Speed
55 58 59 60 65 69 72 71 72 73 73 71 70 69 71 72 71 70 70 71 72 72 74 74 72 71 70 70 72 74 77 77
50 52 54 57 59 61 61 62 63 64 66 67 68 68 68 69 70 71 72 72 73 74 76 77 76 75 76 75 74 74 76 76
51 53 54 56 57 59 61 62 63 63 64 65 66 67 69 70 72 73 73 74 75 74 75 75 76 76 75 75 73 73 74 75
54 55 56 57 58 59 60 61 62 63 64 66 67 68 69 70 71 72 72 74 74 75 75 76 75 75 74 75 76 75 75 78
53 54 54 55 55 56 58 59 61 63 65 66 68 69 71 72 73 74 75 76 76 77 78 78 78 79 78 77 77 76 77 78
52 53 53 54 55 57 60 62 64 65 67 68 69 71 72 73 74 75 76 78 79 80 80 81 80 79 79 80 80 81 81 82
51 52 55 56 58 61 64 66 67 68 70 72 73 74 76 76 77 78 80 81 81 82 82 81 81 81 82 82 82 83 84 84
54 57 59 59 61 64 66 68 69 72 74 77 79 80 82 82 82 82 83 84 84 84 83 83 83 83 82 84 84 84 84 84
58 60 61 62 65 68 70 72 73 74 76 79 81 82 82 83 84 84 84 84 83 82 81 80 81 79 79 80 80 79 79 78
61 62 63 66 67 65 63 65 66 67 68 69 70 72 73 74 74 74 72 71 71 72 71 70 70 68 68 69 68 67 64 62
62 60 57 55 54 55 57 59 60 62 65 67 70 71 72 73 73 71 69 65 61 61 60 58 58 56 55 56 56 56 57 57
49 49 52 54 56 58 60 62 64 67 70 71 73 75 75 75 76 73 70 66 60 54 51 49 47 49 49 51 50 49 52 51
48 50 52 55 57 59 62 64 66 68 71 73 72 74 76 76 74 70 67 63 58 52 47 46 45 47 49 49 45 44 44 45
43 46 49 53 54 57 61 65 67 69 70 72 74 74 71 69 66 64 59 56 52 48 46 44 44 46 48 44 42 41 40 40
44 48 50 52 55 61 64 66 68 70 71 69 64 60 58 56 55 52 48 46 44 42 44 44 44 45 42 40 39 38 38 40
48 51 53 55 60 64 66 67 69 69 68 61 57 52 48 45 43 42 38 37 37 36 40 42 42 40 38 36 36 36 36 38
52 55 58 61 65 67 69 69 69 68 61 55 50 47 45 43 38 34 32 31 31 31 31 32 33 34 34 33 32 34 37 33
57 59 61 64 67 69 68 69 67 62 56 51 51 48 43 43 39 31 27 26 26 25 25 27 28 29 28 30 31 28 26 28
59 61 63 65 67 67 67 67 65 59 56 55 54 49 44 44 39 32 25 22 22 22 22 24 22 23 25 23 21 23 27 30
60 62 63 65 68 66 67 66 60 56 57 59 56 45 39 38 35 26 22 21 19 18 18 17 19 18 18 18 22 27 31 36
Wind_Direction
261 262 265 264 263 265 267 270 272 273 274 276 278 278 278 277 277 276 277 277 277 277 278 278 277 277 275 275 272 269 270 271
265 266 266 267 268 269 271 272 272 273 276 277 277 278 278 277 277 277 277 277 277 277 278 278 277 276 275 274 273 271 272 270
267 268 270 272 273 275 276 277 277 276 276 275 276 277 277 277 276 276 276 275 276 276 275 274 275 276 276 275 274 274 274 274
270 269 269 271 273 275 276 277 279 280 280 280 280 279 279 279 279 278 278 278 278 279 278 278 276 275 274 273 273 273 273 273
273 274 275 276 277 278 279 278 277 278 279 279 279 279 278 277 277 277 277 276 275 276 276 275 276 277 277 276 275 275 274 272
275 277 277 278 279 280 280 280 280 280 280 280 280 279 278 278 278 278 278 277 276 276 276 276 276 277 277 277 276 275 275 274
276 278 279 282 283 282 282 282 282 281 280 279 279 279 279 278 277 277 277 277 277 277 277 277 277 276 276 275 275 274 274 273
282 284 284 285 286 285 286 286 285 284 284 283 282 281 280 280 279 279 279 280 280 280 280 280 279 279 278 277 277 275 274 274
286 288 288 289 290 289 288 288 287 286 286 285 285 286 286 285 284 282 282 282 281 281 282 281 280 280 279 278 278 276 275 274
290 292 294 293 292 294 293 290 289 291 292 292 291 290 288 287 285 283 281 281 281 282 282 281 281 281 280 278 277 275 274 272
294 295 295 296 297 296 297 298 299 300 300 299 297 295 293 292 290 288 287 283 279 279 281 281 282 283 283 283 283 280 274 273
299 300 301 301 300 300 300 300 301 299 298 296 294 294 293 291 289 288 287 286 283 279 278 280 280 282 289 292 289 281 277 277
303 304 302 301 302 302 302 301 299 297 296 295 294 292 291 288 286 284 283 282 280 273 273 275 280 286 294 298 294 289 284 280
312 310 309 307 305 306 304 302 300 300 299 298 298 297 293 289 287 283 281 279 277 271 268 274 281 289 296 297 293 291 288 286
315 316 314 310 309 308 307 306 305 304 303 303 304 302 297 294 291 285 279 275 274 268 266 272 281 288 293 290 288 286 284 285
312 314 315 316 316 314 313 310 309 309 309 308 306 304 301 297 294 287 281 276 273 270 270 273 279 288 291 287 285 286 288 289
313 313 315 317 319 318 316 316 315 312 309 308 306 303 299 296 292 288 280 275 271 272 275 279 283 289 286 288 288 288 290 291
310 313 317 319 322 321 319 317 316 312 309 307 304 298 291 287 285 281 274 270 270 274 275 276 276 279 283 284 285 286 287 291
310 314 319 321 321 322 320 320 317 315 314 311 305 297 280 270 272 274 273 272 271 265 261 263 271 276 278 276 275 283 291 295
313 317 319 321 321 322 322 321 319 318 319 318 314 303 283 261 259 261 259 257 252 251 258 270 275 270 267 271 281 288 292 297
Height
10894 10893 10891 10890 10890 10890 10889 10889 10888 10886 10884 10882 10880 10876 10875 10874 10871 10869 10867 10866 10863 10862 10861 10860 10859 10858 10858 10858 10857 10856 10854 10853
10883 10882 10881 10880 10879 10879 10878 10877 10876 10873 10870 10868 10866 10864 10861 10859 10857 10855 10853 10850 10849 10846 10843 10842 10842 10842 10841 10840 10840 10838 10836 10835
10874 10873 10871 10870 10869 10868 10866 10864 10862 10860 10858 10855 10853 10850 10848 10845 10842 10839 10837 10834 10832 10830 10827 10826 10824 10823 10822 10820 10820 10819 10816 10814
10863 10863 10862 10861 10859 10857 10855 10852 10849 10847 10843 10840 10838 10835 10831 10828 10825 10822 10819 10815 10814 10810 10808 10805 10804 10804 10805 10803 10801 10800 10798 10795
10851 10851 10850 10849 10848 10846 10843 10840 10836 10834 10831 10827 10823 10818 10813 10809 10806 10804 10801 10798 10795 10792 10789 10787 10786 10783 10782 10782 10781 10780 10777 10775
10841 10840 10839 10838 10836 10833 10829 10826 10823 10819 10815 10810 10805 10800 10795 10790 10787 10784 10781 10777 10775 10772 10770 10767 10766 10764 10763 10761 10760 10758 10757 10754
10832 10831 10828 10828 10824 10820 10815 10811 10807 10802 10796 10790 10784 10780 10776 10773 10769 10765 10761 10757 10755 10753 10750 10748 10746 10744 10742 10739 10738 10735 10732 10730
10822 10819 10817 10816 10811 10805 10800 10794 10788 10781 10776 10770 10765 10760 10755 10752 10749 10745 10740 10736 10732 10728 10728 10725 10722 10722 10720 10716 10714 10711 10710 10708
10808 10806 10804 10801 10794 10788 10782 10776 10770 10763 10756 10751 10746 10740 10735 10730 10726 10722 10719 10716 10712 10708 10705 10703 10700 10699 10696 10693 10690 10687 10686 10685
10793 10792 10790 10784 10776 10771 10763 10756 10751 10747 10740 10733 10726 10719 10715 10710 10705 10701 10697 10694 10691 10689 10685 10683 10678 10678 10675 10671 10669 10666 10666 10665
10783 10781 10776 10769 10763 10757 10749 10742 10738 10731 10724 10717 10709 10703 10696 10688 10683 10678 10675 10674 10674 10671 10669 10665 10661 10658 10656 10652 10649 10646 10647 10648
10771 10768 10763 10756 10750 10743 10737 10731 10725 10717 10709 10701 10692 10684 10676 10670 10664 10659 10657 10653 10652 10652 10651 10650 10647 10644 10641 10639 10635 10632 10630 10631
10761 10757 10752 10744 10738 10731 10725 10719 10711 10702 10693 10683 10674 10665 10657 10648 10642 10639 10637 10635 10634 10635 10636 10636 10634 10632 10629 10625 10620 10617 10615 10615
10750 10746 10739 10733 10727 10721 10714 10704 10694 10684 10674 10665 10655 10644 10634 10626 10621 10619 10618 10617 10617 10618 10621 10623 10622 10620 10616 10612 10609 10606 10603 10601
10740 10734 10728 10723 10716 10708 10698 10687 10676 10665 10655 10645 10635 10625 10616 10608 10603 10601 10602 10602 10603 10605 10607 10609 10610 10608 10605 10602 10600 10597 10593 10591
10730 10725 10719 10712 10703 10693 10682 10670 10658 10646 10634 10626 10618 10610 10603 10596 10591 10588 10589 10590 10591 10593 10595 10597 10598 10597 10595 10593 10589 10586 10584 10581
10721 10714 10707 10699 10689 10677 10665 10653 10641 10629 10619 10612 10605 10599 10592 10586 10582 10579 10579 10580 10582 10584 10586 10587 10587 10586 10584 10582 10580 10577 10574 10571
10710 10703 10695 10686 10675 10663 10651 10639 10628 10615 10607 10599 10592 10587 10581 10575 10572 10571 10571 10572 10574 10576 10578 10579 10579 10578 10577 10574 10571 10569 10567 10564
10699 10691 10682 10673 10662 10651 10639 10628 10614 10602 10594 10584 10574 10567 10563 10559 10560 10562 10564 10566 10568 10570 10571 10572 10572 10570 10568 10566 10564 10562 10560 10557
10686 10678 10671 10662 10652 10640 10628 10616 10604 10593 10582 10569 10555 10545 10540 10542 10548 10554 10557 10559 10562 10563 10564 10564 10563 10562 10561 10560 10558 10556 10552 10546